Location: Stoke Bliss
(52.2667°N, 2.5167°W)
Time: 14:35:28
(UTC+00:00)

Cosmos 1354 Rocket - Pass Details

Date: 03 March 2021
Orbit: 765 x 782 km, 74.0° (Epoch: 13 April)

Event Time Altitude Azimuth Distance (km) Brightness Sun altitude
Rises 18:16:38 0° 336° (NNW) 3,256 7.5 -4.4°
Reaches altitude 10° 18:19:09 10° 343° (NNW) 2,323 6.7 -4.7°
Maximum altitude 18:24:11 44° 56° (NE) 1,056 4.4 -5.5°
Drops below altitude 10° 18:29:11 10° 128° (SE) 2,302 6.0 -6.3°
Sets 18:31:39 0° 135° (SE) 3,224 6.8 -6.6°
